User: anonymous   Login
Location: Newark
(11.6000°N, 43.1667°E)
Time: 20:04:03
(UTC+00:00)
Language:

ISS - Orbit

View from above orbital plane
View from above orbital plane
View from above satellite
View from above satellite

Ground track
Ground track

The orbit data is extracted from the following two-line orbital elements,

1 25544U 98067A   19290.69894381  .00000432  00000-0  15517-4 0  9991
2 25544  51.6427 113.7752 0007167 157.2884 299.5793 15.50202034194267
Epoch (UTC): 17 October 2019 16:46:28
Eccentricity: 0.0007167
inclination: 51.6427°
perigee height: 411 km
apogee height: 421 km
right ascension of ascending node: 113.7752°
argument of perigee: 157.2884°
revolutions per day: 15.50202034
mean anomaly at epoch: 299.5793°
orbit number at epoch: 19426

The dashed part of the orbit path shows where the satellite is in the earth's shadow,  

DLR